owner,sensor,date,latitude,longitude,vertical_datum,direction_of_sea_water_velocity,sea_water_speed,upward_sea_water_velocity,qcFlag 
TABS,ioos:station:wmo:42043:1,2011-04-01T00:00:00Z,28.9818,-94.9186,2.0,233.3168502,40.4262155,-99999.0,'11111222,11111222,99999999' 
TABS,ioos:station:wmo:42043:1,2011-04-01T00:30:00Z,28.9818,-94.9186,2.0,224.3863474,41.61561846,-99999.0,'11111222,11111222,99999999' 
TABS,ioos:station:wmo:42043:1,2011-04-01T01:00:00Z,28.9818,-94.9186,2.0,220.0961419,41.3615667,-99999.0,'11111222,11111222,99999999' 
TABS,ioos:station:wmo:42043:1,2011-04-01T01:30:00Z,28.9818,-94.9186,2.0,215.9749829,38.81273116,-99999.0,'11111222,11111222,99999999' 
TABS,ioos:station:wmo:42043:1,2011-04-01T02:00:00Z,28.9818,-94.9186,2.0,210.1267789,37.93438678,-99999.0,'11111222,11111222,99999999' 
TABS,ioos:station:wmo:42043:1,2011-04-01T02:30:00Z,28.9818,-94.9186,2.0,207.4153176,35.24878721,-99999.0,'11111222,11111222,99999999' 
TABS,ioos:station:wmo:42043:1,2011-04-01T03:00:00Z,28.9818,-94.9186,2.0,201.6206455,37.72419515,-99999.0,'11111222,11111222,99999999' 
TABS,ioos:station:wmo:42043:1,2011-04-01T03:30:00Z,28.9818,-94.9186,2.0,200.3327486,34.27575966,-99999.0,'11111222,11111222,99999999' 
TABS,ioos:station:wmo:42043:1,2011-04-01T04:00:00Z,28.9818,-94.9186,2.0,196.2628703,31.45880004,-99999.0,'11111222,11111222,99999999' 
TABS,ioos:station:wmo:42043:1,2011-04-01T04:30:00Z,28.9818,-94.9186,2.0,197.457528,30.96636401,-99999.0,'11111222,11111222,99999999' 
TABS,ioos:station:wmo:42043:1,2011-04-01T05:00:00Z,28.9818,-94.9186,2.0,194.5182223,30.8346461,-99999.0,'11111222,11111222,99999999' 
TABS,ioos:station:wmo:42043:1,2011-04-01T05:30:00Z,28.9818,-94.9186,2.0,191.1099867,32.0710664,-99999.0,'11111222,11111222,99999999' 
TABS,ioos:station:wmo:42043:1,2011-04-01T06:00:00Z,28.9818,-94.9186,2.0,187.10243,31.78390316,-99999.0,'11111222,11111222,99999999' 
TABS,ioos:station:wmo:42043:1,2011-04-01T06:30:00Z,28.9818,-94.9186,2.0,181.199523,36.29795724,-99999.0,'11111222,11111222,99999999' 
TABS,ioos:station:wmo:42043:1,2011-04-01T07:00:00Z,28.9818,-94.9186,2.0,185.0704049,38.12921846,-99999.0,'11111222,11111222,99999999' 
TABS,ioos:station:wmo:42043:1,2011-04-01T07:30:00Z,28.9818,-94.9186,2.0,183.3313874,39.57688846,-99999.0,'11111222,11111222,99999999' 
TABS,ioos:station:wmo:42043:1,2011-04-01T08:00:00Z,28.9818,-94.9186,2.0,181.1202372,39.37752913,-99999.0,'11111222,11111222,99999999' 
TABS,ioos:station:wmo:42043:1,2011-04-01T08:30:00Z,28.9818,-94.9186,2.0,181.9784804,41.99504018,-99999.0,'11111222,11111222,99999999' 
TABS,ioos:station:wmo:42043:1,2011-04-01T09:00:00Z,28.9818,-94.9186,2.0,181.9297621,42.16391822,-99999.0,'11111222,11111222,99999999' 
TABS,ioos:station:wmo:42043:1,2011-04-01T09:30:00Z,28.9818,-94.9186,2.0,184.7487849,39.01393725,-99999.0,'11111222,11111222,99999999' 
TABS,ioos:station:wmo:42043:1,2011-04-01T10:00:00Z,28.9818,-94.9186,2.0,186.1532083,38.62252711,-99999.0,'11111222,11111222,99999999' 
TABS,ioos:station:wmo:42043:1,2011-04-01T10:30:00Z,28.9818,-94.9186,2.0,188.3428824,38.80063144,-99999.0,'11111222,11111222,99999999' 
TABS,ioos:station:wmo:42043:1,2011-04-01T11:00:00Z,28.9818,-94.9186,2.0,182.2811149,41.95325136,-99999.0,'11111222,11111222,99999999' 
TABS,ioos:station:wmo:42043:1,2011-04-01T11:30:00Z,28.9818,-94.9186,2.0,175.8681944,38.16919439,-99999.0,'11111222,11111222,99999999' 
TABS,ioos:station:wmo:42043:1,2011-04-01T12:00:00Z,28.9818,-94.9186,2.0,182.5452299,39.62910168,-99999.0,'11111222,11111222,99999999' 
TABS,ioos:station:wmo:42043:1,2011-04-01T12:30:00Z,28.9818,-94.9186,2.0,180.3528675,35.70067786,-99999.0,'11111222,11111222,99999999' 
TABS,ioos:station:wmo:42043:1,2011-04-01T13:00:00Z,28.9818,-94.9186,2.0,177.9208838,34.18249845,-99999.0,'11111222,11111222,99999999' 
TABS,ioos:station:wmo:42043:1,2011-04-01T13:30:00Z,28.9818,-94.9186,2.0,173.9094846,33.93151338,-99999.0,'11111222,11111222,99999999' 
TABS,ioos:station:wmo:42043:1,2011-04-01T14:00:00Z,28.9818,-94.9186,2.0,169.5117589,30.48938996,-99999.0,'11111222,11111222,99999999' 
TABS,ioos:station:wmo:42043:1,2011-04-01T14:30:00Z,28.9818,-94.9186,2.0,168.3497037,31.04965378,-99999.0,'11111222,11111222,99999999' 
TABS,ioos:station:wmo:42043:1,2011-04-01T15:00:00Z,28.9818,-94.9186,2.0,165.5206158,30.11654861,-99999.0,'11111222,11111222,99999999' 
TABS,ioos:station:wmo:42043:1,2011-04-01T15:30:00Z,28.9818,-94.9186,2.0,167.0888927,29.76243606,-99999.0,'11111222,11111222,99999999' 
TABS,ioos:station:wmo:42043:1,2011-04-01T16:00:00Z,28.9818,-94.9186,2.0,165.6719585,25.25556176,-99999.0,'11111222,11111222,99999999' 
TABS,ioos:station:wmo:42043:1,2011-04-01T16:30:00Z,28.9818,-94.9186,2.0,167.232261,26.29003043,-99999.0,'11111222,11111222,99999999' 
TABS,ioos:station:wmo:42043:1,2011-04-01T17:00:00Z,28.9818,-94.9186,2.0,163.417115,27.78564018,-99999.0,'11111222,11111222,99999999' 
TABS,ioos:station:wmo:42043:1,2011-04-01T17:30:00Z,28.9818,-94.9186,2.0,156.8613198,28.80733414,-99999.0,'11111222,11111222,99999999' 
TABS,ioos:station:wmo:42043:1,2011-04-01T18:00:00Z,28.9818,-94.9186,2.0,156.1939017,27.1281201,-99999.0,'11111222,11111222,99999999' 
TABS,ioos:station:wmo:42043:1,2011-04-01T18:30:00Z,28.9818,-94.9186,2.0,161.7722254,28.8369988,-99999.0,'11111222,11111222,99999999' 
TABS,ioos:station:wmo:42043:1,2011-04-01T19:00:00Z,28.9818,-94.9186,2.0,164.4410251,30.94391863,-99999.0,'11111222,11111222,99999999' 
TABS,ioos:station:wmo:42043:1,2011-04-01T19:30:00Z,28.9818,-94.9186,2.0,171.0050995,31.02147804,-99999.0,'11111222,11111222,99999999' 
TABS,ioos:station:wmo:42043:1,2011-04-01T20:00:00Z,28.9818,-94.9186,2.0,183.6181309,32.32443658,-99999.0,'11111222,11111222,99999999' 
TABS,ioos:station:wmo:42043:1,2011-04-02T00:00:00Z,28.9818,-94.9186,2.0,210.4709731,20.35077394,-99999.0,'11111222,11111222,99999999' 
TABS,ioos:station:wmo:42043:1,2011-04-02T00:30:00Z,28.9818,-94.9186,2.0,215.1501172,19.26267375,-99999.0,'11111222,11111222,99999999' 
TABS,ioos:station:wmo:42043:1,2011-04-02T01:00:00Z,28.9818,-94.9186,2.0,218.9642146,17.61977298,-99999.0,'11111222,11111222,99999999' 
TABS,ioos:station:wmo:42043:1,2011-04-02T01:30:00Z,28.9818,-94.9186,2.0,237.6167541,15.92681387,-99999.0,'11111222,11111222,99999999' 
TABS,ioos:station:wmo:42043:1,2011-04-02T02:00:00Z,28.9818,-94.9186,2.0,242.8215277,13.79285685,-99999.0,'11111222,11111222,99999999' 
TABS,ioos:station:wmo:42043:1,2011-04-02T02:30:00Z,28.9818,-94.9186,2.0,248.1816059,12.80740801,-99999.0,'11111222,11111222,99999999' 
TABS,ioos:station:wmo:42043:1,2011-04-02T03:00:00Z,28.9818,-94.9186,2.0,260.3352253,10.72216862,-99999.0,'11111222,11111222,99999999' 
TABS,ioos:station:wmo:42043:1,2011-04-02T03:30:00Z,28.9818,-94.9186,2.0,281.5235074,8.960608238,-99999.0,'11133222,11111222,99999999' 
TABS,ioos:station:wmo:42043:1,2011-04-02T04:00:00Z,28.9818,-94.9186,2.0,299.1515566,9.217515934,-99999.0,'11133222,11111222,99999999' 
TABS,ioos:station:wmo:42043:1,2011-04-02T04:30:00Z,28.9818,-94.9186,2.0,319.1652624,6.912546564,-99999.0,'11133222,11111222,99999999' 
TABS,ioos:station:wmo:42043:1,2011-04-02T05:00:00Z,28.9818,-94.9186,2.0,337.3902498,8.94769244,-99999.0,'11133222,11111222,99999999' 
TABS,ioos:station:wmo:42043:1,2011-04-02T05:30:00Z,28.9818,-94.9186,2.0,341.8172906,11.50447739,-99999.0,'11111222,11111222,99999999' 
TABS,ioos:station:wmo:42043:1,2011-04-02T06:00:00Z,28.9818,-94.9186,2.0,3.552808292,13.55605031,-99999.0,'11111222,11111222,99999999' 
TABS,ioos:station:wmo:42043:1,2011-04-02T06:30:00Z,28.9818,-94.9186,2.0,16.06511892,15.14128792,-99999.0,'11111222,11111222,99999999' 
TABS,ioos:station:wmo:42043:1,2011-04-02T07:00:00Z,28.9818,-94.9186,2.0,20.51013768,17.46722645,-99999.0,'11111222,11111222,99999999' 
TABS,ioos:station:wmo:42043:1,2011-04-02T07:30:00Z,28.9818,-94.9186,2.0,31.0631032,18.81856796,-99999.0,'11111222,11111222,99999999' 
TABS,ioos:station:wmo:42043:1,2011-04-02T08:00:00Z,28.9818,-94.9186,2.0,35.12251715,17.64220508,-99999.0,'11111222,11111222,99999999' 
TABS,ioos:station:wmo:42043:1,2011-04-02T08:30:00Z,28.9818,-94.9186,2.0,53.18647111,18.32400884,-99999.0,'11111222,11111222,99999999' 
TABS,ioos:station:wmo:42043:1,2011-04-02T09:00:00Z,28.9818,-94.9186,2.0,76.08897423,17.76092621,-99999.0,'11111222,11111222,99999999' 
TABS,ioos:station:wmo:42043:1,2011-04-02T09:30:00Z,28.9818,-94.9186,2.0,96.44640279,19.06051416,-99999.0,'11111222,11111222,99999999' 
TABS,ioos:station:wmo:42043:1,2011-04-02T10:00:00Z,28.9818,-94.9186,2.0,114.0855357,19.84803265,-99999.0,'11111222,11111222,99999999' 
TABS,ioos:station:wmo:42043:1,2011-04-02T10:30:00Z,28.9818,-94.9186,2.0,118.8959066,22.10169451,-99999.0,'11111222,11111222,99999999' 
TABS,ioos:station:wmo:42043:1,2011-04-02T11:00:00Z,28.9818,-94.9186,2.0,132.7837266,25.23430205,-99999.0,'11111222,11111222,99999999' 
TABS,ioos:station:wmo:42043:1,2011-04-02T11:30:00Z,28.9818,-94.9186,2.0,142.7019022,25.43070978,-99999.0,'11111222,11111222,99999999' 
TABS,ioos:station:wmo:42043:1,2011-04-02T12:00:00Z,28.9818,-94.9186,2.0,148.1787036,26.70360463,-99999.0,'11111222,11111222,99999999' 
TABS,ioos:station:wmo:42043:1,2011-04-02T12:30:00Z,28.9818,-94.9186,2.0,149.6440149,24.89270576,-99999.0,'11111222,11111222,99999999' 
TABS,ioos:station:wmo:42043:1,2011-04-02T13:00:00Z,28.9818,-94.9186,2.0,153.6523528,25.91174251,-99999.0,'11111222,11111222,99999999' 
TABS,ioos:station:wmo:42043:1,2011-04-02T13:30:00Z,28.9818,-94.9186,2.0,157.2429797,26.05853603,-99999.0,'11111222,11111222,99999999' 
TABS,ioos:station:wmo:42043:1,2011-04-02T14:00:00Z,28.9818,-94.9186,2.0,163.2864388,27.15724949,-99999.0,'11111222,11111222,99999999' 
TABS,ioos:station:wmo:42043:1,2011-04-02T14:30:00Z,28.9818,-94.9186,2.0,163.5673302,30.86053953,-99999.0,'11111222,11111222,99999999' 
TABS,ioos:station:wmo:42043:1,2011-04-02T15:00:00Z,28.9818,-94.9186,2.0,168.9651758,32.65371342,-99999.0,'11111222,11111222,99999999' 
TABS,ioos:station:wmo:42043:1,2011-04-02T15:30:00Z,28.9818,-94.9186,2.0,171.1598511,33.90271523,-99999.0,'11111222,11111222,99999999' 
TABS,ioos:station:wmo:42043:1,2011-04-02T16:00:00Z,28.9818,-94.9186,2.0,171.5664867,36.34296906,-99999.0,'11111222,11111222,99999999' 
TABS,ioos:station:wmo:42043:1,2011-04-02T16:30:00Z,28.9818,-94.9186,2.0,176.3068826,36.17511437,-99999.0,'11111222,11111222,99999999' 
TABS,ioos:station:wmo:42043:1,2011-04-02T17:00:00Z,28.9818,-94.9186,2.0,177.7656625,37.70866346,-99999.0,'11111222,11111222,99999999' 
TABS,ioos:station:wmo:42043:1,2011-04-02T17:30:00Z,28.9818,-94.9186,2.0,181.492547,38.00289726,-99999.0,'11111222,11111222,99999999' 
TABS,ioos:station:wmo:42043:1,2011-04-02T18:00:00Z,28.9818,-94.9186,2.0,186.6373321,39.36384763,-99999.0,'11111222,11111222,99999999' 
TABS,ioos:station:wmo:42043:1,2011-04-02T18:30:00Z,28.9818,-94.9186,2.0,198.0612652,33.96358344,-99999.0,'11111222,11111222,99999999' 
TABS,ioos:station:wmo:42043:1,2011-04-02T19:00:00Z,28.9818,-94.9186,2.0,198.9972521,31.24164688,-99999.0,'11111222,11111222,99999999' 
TABS,ioos:station:wmo:42043:1,2011-04-02T19:30:00Z,28.9818,-94.9186,2.0,210.990338,32.91915704,-99999.0,'11111222,11111222,99999999' 
TABS,ioos:station:wmo:42043:1,2011-04-02T20:00:00Z,28.9818,-94.9186,2.0,218.6677494,32.57003838,-99999.0,'11111222,11111222,99999999' 
TABS,ioos:station:wmo:42043:1,2011-04-02T20:30:00Z,28.9818,-94.9186,2.0,224.9996843,46.99431668,-99999.0,'11111222,11111222,99999999' 
TABS,ioos:station:wmo:42043:1,2011-04-02T21:00:00Z,28.9818,-94.9186,2.0,221.9986828,47.00220633,-99999.0,'11111222,11111222,99999999' 
TABS,ioos:station:wmo:42043:1,2011-04-02T21:30:00Z,28.9818,-94.9186,2.0,222.0019868,48.00045104,-99999.0,'11111222,11111222,99999999' 
TABS,ioos:station:wmo:42043:1,2011-04-02T22:00:00Z,28.9818,-94.9186,2.0,223.9997415,47.00147444,-99999.0,'11111222,11111222,99999999' 
TABS,ioos:station:wmo:42043:1,2011-04-02T22:30:00Z,28.9818,-94.9186,2.0,222.0019868,48.00045104,-99999.0,'11111222,11111222,99999999' 
TABS,ioos:station:wmo:42043:1,2011-04-03T00:00:00Z,28.9818,-94.9186,2.0,260.5978786,35.75022378,-99999.0,'11111222,11111222,99999999' 
TABS,ioos:station:wmo:42043:1,2011-04-03T00:30:00Z,28.9818,-94.9186,2.0,263.1898341,35.84285982,-99999.0,'11111222,11111222,99999999' 
TABS,ioos:station:wmo:42043:1,2011-04-03T01:00:00Z,28.9818,-94.9186,2.0,270.8088811,36.85366875,-99999.0,'11111222,11111222,99999999' 
TABS,ioos:station:wmo:42043:1,2011-04-03T01:30:00Z,28.9818,-94.9186,2.0,271.4232544,38.66192054,-99999.0,'11111222,11111222,99999999' 
TABS,ioos:station:wmo:42043:1,2011-04-03T02:00:00Z,28.9818,-94.9186,2.0,274.2189617,34.39318101,-99999.0,'11111222,11111222,99999999' 
TABS,ioos:station:wmo:42043:1,2011-04-03T02:30:00Z,28.9818,-94.9186,2.0,274.6366916,37.7334679,-99999.0,'11111222,11111222,99999999' 
TABS,ioos:station:wmo:42043:1,2011-04-03T03:00:00Z,28.9818,-94.9186,2.0,282.0338981,37.89265892,-99999.0,'11111222,11111222,99999999' 
TABS,ioos:station:wmo:42043:1,2011-04-03T03:30:00Z,28.9818,-94.9186,2.0,284.4973583,38.90882291,-99999.0,'11111222,11111222,99999999' 
TABS,ioos:station:wmo:42043:1,2011-04-03T04:00:00Z,28.9818,-94.9186,2.0,293.4061699,35.21792867,-99999.0,'11111222,11111222,99999999' 
TABS,ioos:station:wmo:42043:1,2011-04-03T04:30:00Z,28.9818,-94.9186,2.0,298.6035166,37.59867152,-99999.0,'11111222,11111222,99999999' 
TABS,ioos:station:wmo:42043:1,2011-04-03T05:00:00Z,28.9818,-94.9186,2.0,305.9702203,38.8347911,-99999.0,'11111222,11111222,99999999' 
TABS,ioos:station:wmo:42043:1,2011-04-03T05:30:00Z,28.9818,-94.9186,2.0,315.0233723,35.14320987,-99999.0,'11111222,11111222,99999999' 
TABS,ioos:station:wmo:42043:1,2011-04-03T06:00:00Z,28.9818,-94.9186,2.0,321.0284137,34.40715187,-99999.0,'11111222,11111222,99999999' 
TABS,ioos:station:wmo:42043:1,2011-04-03T06:30:00Z,28.9818,-94.9186,2.0,331.8222295,33.20535047,-99999.0,'11111222,11111222,99999999' 
TABS,ioos:station:wmo:42043:1,2011-04-03T07:00:00Z,28.9818,-94.9186,2.0,339.4624979,33.00794601,-99999.0,'11111222,11111222,99999999' 
TABS,ioos:station:wmo:42043:1,2011-04-03T07:30:00Z,28.9818,-94.9186,2.0,342.4790117,26.57283575,-99999.0,'11111222,11111222,99999999' 
TABS,ioos:station:wmo:42043:1,2011-04-03T08:00:00Z,28.9818,-94.9186,2.0,351.6011355,27.11077277,-99999.0,'11111222,11111222,99999999' 
TABS,ioos:station:wmo:42043:1,2011-04-03T08:30:00Z,28.9818,-94.9186,2.0,351.8039064,22.02497673,-99999.0,'11111222,11111222,99999999' 
TABS,ioos:station:wmo:42043:1,2011-04-03T09:00:00Z,28.9818,-94.9186,2.0,354.8793299,19.04602058,-99999.0,'11111222,11111222,99999999' 
TABS,ioos:station:wmo:42043:1,2011-04-03T09:30:00Z,28.9818,-94.9186,2.0,0.405477939,11.31028293,-99999.0,'11111222,11111222,99999999' 
TABS,ioos:station:wmo:42043:1,2011-04-03T10:00:00Z,28.9818,-94.9186,2.0,3.155622587,7.811843572,-99999.0,'11133222,11111222,99999999' 
TABS,ioos:station:wmo:42043:1,2011-04-03T10:30:00Z,28.9818,-94.9186,2.0,325.1942139,5.553602434,-99999.0,'11133222,11111222,99999999' 
TABS,ioos:station:wmo:42043:1,2011-04-03T11:00:00Z,28.9818,-94.9186,2.0,253.0008848,7.696239341,-99999.0,'11133222,11111222,99999999' 
TABS,ioos:station:wmo:42043:1,2011-04-03T11:30:00Z,28.9818,-94.9186,2.0,238.1265166,9.184906096,-99999.0,'11133222,11111222,99999999' 
TABS,ioos:station:wmo:42043:1,2011-04-04T00:00:00Z,28.9818,-94.9186,2.0,235.690828,48.02597006,-99999.0,'11111222,11111222,99999999' 
TABS,ioos:station:wmo:42043:1,2011-04-04T00:30:00Z,28.9818,-94.9186,2.0,235.1142417,47.99478513,-99999.0,'11111222,11111222,99999999' 
TABS,ioos:station:wmo:42043:1,2011-04-04T01:00:00Z,28.9818,-94.9186,2.0,239.7821254,43.45456708,-99999.0,'11111222,11111222,99999999' 
TABS,ioos:station:wmo:42043:1,2011-04-04T01:30:00Z,28.9818,-94.9186,2.0,246.5827094,41.69403435,-99999.0,'11111222,11111222,99999999' 
TABS,ioos:station:wmo:42043:1,2011-04-04T02:00:00Z,28.9818,-94.9186,2.0,250.423324,37.78406542,-99999.0,'11111222,11111222,99999999' 
TABS,ioos:station:wmo:42043:1,2011-04-04T02:30:00Z,28.9818,-94.9186,2.0,259.9098833,35.73261815,-99999.0,'11111222,11111222,99999999' 
TABS,ioos:station:wmo:42043:1,2011-04-04T03:00:00Z,28.9818,-94.9186,2.0,271.473215,33.0709253,-99999.0,'11111222,11111222,99999999' 
TABS,ioos:station:wmo:42043:1,2011-04-04T03:30:00Z,28.9818,-94.9186,2.0,288.7712507,31.82254704,-99999.0,'11111222,11111222,99999999' 
TABS,ioos:station:wmo:42043:1,2011-04-04T04:00:00Z,28.9818,-94.9186,2.0,305.6614882,31.28696214,-99999.0,'11111222,11111222,99999999' 
TABS,ioos:station:wmo:42043:1,2011-04-04T04:30:00Z,28.9818,-94.9186,2.0,316.7835725,30.4486223,-99999.0,'11111222,11111222,99999999' 
TABS,ioos:station:wmo:42043:1,2011-04-04T05:00:00Z,28.9818,-94.9186,2.0,330.5077407,31.26077734,-99999.0,'11111222,11111222,99999999' 
TABS,ioos:station:wmo:42043:1,2011-04-04T05:30:00Z,28.9818,-94.9186,2.0,345.70211,35.5512433,-99999.0,'11111222,11111222,99999999' 
TABS,ioos:station:wmo:42043:1,2011-04-04T06:00:00Z,28.9818,-94.9186,2.0,356.4759417,40.5066044,-99999.0,'11111222,11111222,99999999' 
TABS,ioos:station:wmo:42043:1,2011-04-04T06:30:00Z,28.9818,-94.9186,2.0,4.161644314,40.37645106,-99999.0,'11111222,11111222,99999999' 
TABS,ioos:station:wmo:42043:1,2011-04-04T07:00:00Z,28.9818,-94.9186,2.0,9.5167349,43.42765593,-99999.0,'11111222,11111222,99999999' 
TABS,ioos:station:wmo:42043:1,2011-04-04T07:30:00Z,28.9818,-94.9186,2.0,11.35200538,40.2371582,-99999.0,'11111222,11111222,99999999' 
TABS,ioos:station:wmo:42043:1,2011-04-04T08:00:00Z,28.9818,-94.9186,2.0,16.68355985,38.07263847,-99999.0,'11111222,11111222,99999999' 
TABS,ioos:station:wmo:42043:1,2011-04-04T08:30:00Z,28.9818,-94.9186,2.0,24.33860986,37.75544464,-99999.0,'11111222,11111222,99999999' 
TABS,ioos:station:wmo:42043:1,2011-04-04T09:00:00Z,28.9818,-94.9186,2.0,28.08996181,40.8405901,-99999.0,'11111222,11111222,99999999' 
TABS,ioos:station:wmo:42043:1,2011-04-04T09:30:00Z,28.9818,-94.9186,2.0,30.36243852,35.45242587,-99999.0,'11111222,11111222,99999999' 
TABS,ioos:station:wmo:42043:1,2011-04-04T14:00:00Z,28.9818,-94.9186,2.0,103.95142372306,9.829979654099,-99999.0,'1111122,1111122,1199999999' 
TABS,ioos:station:wmo:42043:1,2011-04-04T14:30:00Z,28.9818,-94.9186,2.0,144.34002617281,6.5354571377984,-99999.0,'1111122,1111122,1199999999' 
TABS,ioos:station:wmo:42043:1,2011-04-04T15:00:00Z,28.9818,-94.9186,2.0,139.75035930641,7.599217064935,-99999.0,'1111122,1111122,1199999999' 
TABS,ioos:station:wmo:42043:1,2011-04-04T15:30:00Z,28.9818,-94.9186,2.0,134.94522393685,29.585361245048,-99999.0,'1111122,1111122,1199999999' 
TABS,ioos:station:wmo:42043:1,2011-04-04T20:00:00Z,28.9818,-94.9186,2.0,193.9980895,10.99656765,-99999.0,'11111222,11111222,99999999' 
TABS,ioos:station:wmo:42043:1,2011-04-04T20:30:00Z,28.9818,-94.9186,2.0,197.9918003,9.00011111,-99999.0,'11133222,11111222,99999999' 
TABS,ioos:station:wmo:42043:1,2011-04-04T21:00:00Z,28.9818,-94.9186,2.0,199.9746922,12.0020165,-99999.0,'11111222,11111222,99999999' 
TABS,ioos:station:wmo:42043:1,2011-04-04T21:30:00Z,28.9818,-94.9186,2.0,213.0011619,15.00017667,-99999.0,'11111222,11111222,99999999' 
TABS,ioos:station:wmo:42043:1,2011-04-04T22:00:00Z,28.9818,-94.9186,2.0,208.9933814,21.00212608,-99999.0,'11111222,11111222,99999999' 
TABS,ioos:station:wmo:42043:1,2011-04-04T22:30:00Z,28.9818,-94.9186,2.0,215.0045295,21.99965454,-99999.0,'11111222,11111222,99999999' 
TABS,ioos:station:wmo:42043:1,2011-04-05T00:00:00Z,28.9818,-94.9186,2.0,210.2910295,50.85283276,-99999.0,'11111222,11111222,99999999' 
TABS,ioos:station:wmo:42043:1,2011-04-05T00:30:00Z,28.9818,-94.9186,2.0,216.9818878,46.94409015,-99999.0,'11111222,11111222,99999999' 
TABS,ioos:station:wmo:42043:1,2011-04-05T01:00:00Z,28.9818,-94.9186,2.0,219.1973013,42.59514644,-99999.0,'11111222,11111222,99999999' 
TABS,ioos:station:wmo:42043:1,2011-04-05T01:30:00Z,28.9818,-94.9186,2.0,220.5791374,42.65937763,-99999.0,'11111222,11111222,99999999' 
TABS,ioos:station:wmo:42043:1,2011-04-05T02:00:00Z,28.9818,-94.9186,2.0,224.174684,39.77888007,-99999.0,'11111222,11111222,99999999' 
TABS,ioos:station:wmo:42043:1,2011-04-05T02:30:00Z,28.9818,-94.9186,2.0,231.2960349,42.87595713,-99999.0,'11111222,11111222,99999999' 
TABS,ioos:station:wmo:42043:1,2011-04-05T03:00:00Z,28.9818,-94.9186,2.0,233.1197828,45.9060007,-99999.0,'11111222,11111222,99999999' 
TABS,ioos:station:wmo:42043:1,2011-04-05T03:30:00Z,28.9818,-94.9186,2.0,240.5765524,41.07847125,-99999.0,'11111222,11111222,99999999' 
TABS,ioos:station:wmo:42043:1,2011-04-05T04:00:00Z,28.9818,-94.9186,2.0,239.4957596,41.66692333,-99999.0,'11111222,11111222,99999999' 
TABS,ioos:station:wmo:42043:1,2011-04-05T04:30:00Z,28.9818,-94.9186,2.0,239.3723611,35.92099804,-99999.0,'11111222,11111222,99999999' 
TABS,ioos:station:wmo:42043:1,2011-04-05T05:00:00Z,28.9818,-94.9186,2.0,239.7567974,33.39513288,-99999.0,'11111222,11111222,99999999' 
TABS,ioos:station:wmo:42043:1,2011-04-05T05:30:00Z,28.9818,-94.9186,2.0,239.6276858,35.69933473,-99999.0,'11111222,11111222,99999999' 
TABS,ioos:station:wmo:42043:1,2011-04-05T06:00:00Z,28.9818,-94.9186,2.0,241.988903,34.38825526,-99999.0,'11111222,11111222,99999999' 
TABS,ioos:station:wmo:42043:1,2011-04-05T06:30:00Z,28.9818,-94.9186,2.0,250.2077029,27.90860262,-99999.0,'11111222,11111222,99999999' 
TABS,ioos:station:wmo:42043:1,2011-04-05T07:00:00Z,28.9818,-94.9186,2.0,255.704711,26.325085,-99999.0,'11111222,11111222,99999999' 
TABS,ioos:station:wmo:42043:1,2011-04-05T07:30:00Z,28.9818,-94.9186,2.0,255.2875665,29.61080884,-99999.0,'11111222,11111222,99999999' 
TABS,ioos:station:wmo:42043:1,2011-04-05T08:00:00Z,28.9818,-94.9186,2.0,262.3046156,28.6782496,-99999.0,'11111222,11111222,99999999' 
TABS,ioos:station:wmo:42043:1,2011-04-05T08:30:00Z,28.9818,-94.9186,2.0,262.4710956,27.47685572,-99999.0,'11111222,11111222,99999999' 
TABS,ioos:station:wmo:42043:1,2011-04-05T09:00:00Z,28.9818,-94.9186,2.0,267.6573701,26.1818735,-99999.0,'11111222,11111222,99999999' 
TABS,ioos:station:wmo:42043:1,2011-04-05T09:30:00Z,28.9818,-94.9186,2.0,262.9799491,22.25683041,-99999.0,'11111222,11111222,99999999' 
TABS,ioos:station:wmo:42043:1,2011-04-05T10:00:00Z,28.9818,-94.9186,2.0,249.4651622,31.07442678,-99999.0,'11111222,11111222,99999999' 
TABS,ioos:station:wmo:42043:1,2011-04-05T10:30:00Z,28.9818,-94.9186,2.0,261.8287304,23.85213198,-99999.0,'11111222,11111222,99999999' 
TABS,ioos:station:wmo:42043:1,2011-04-05T11:00:00Z,28.9818,-94.9186,2.0,270.6500602,22.931474,-99999.0,'11111222,11111222,99999999' 
TABS,ioos:station:wmo:42043:1,2011-04-06T00:00:00Z,28.9818,-94.9186,2.0,237.2876483,23.72243664,-99999.0,'11111222,11111222,99999999' 
TABS,ioos:station:wmo:42043:1,2011-04-06T00:30:00Z,28.9818,-94.9186,2.0,231.7641266,23.83276946,-99999.0,'11111222,11111222,99999999' 
TABS,ioos:station:wmo:42043:1,2011-04-06T01:00:00Z,28.9818,-94.9186,2.0,233.9827415,20.15223313,-99999.0,'11111222,11111222,99999999' 
TABS,ioos:station:wmo:42043:1,2011-04-06T01:30:00Z,28.9818,-94.9186,2.0,231.8586,21.90739145,-99999.0,'11111222,11111222,99999999' 
TABS,ioos:station:wmo:42043:1,2011-04-06T02:00:00Z,28.9818,-94.9186,2.0,237.0111346,25.14367117,-99999.0,'11111222,11111222,99999999' 
TABS,ioos:station:wmo:42043:1,2011-04-06T02:30:00Z,28.9818,-94.9186,2.0,240.3673077,28.41641251,-99999.0,'11111222,11111222,99999999' 
TABS,ioos:station:wmo:42043:1,2011-04-06T03:00:00Z,28.9818,-94.9186,2.0,248.6308564,25.08444139,-99999.0,'11111222,11111222,99999999' 
TABS,ioos:station:wmo:42043:1,2011-04-06T03:30:00Z,28.9818,-94.9186,2.0,250.9972544,23.31029172,-99999.0,'11111222,11111222,99999999' 
TABS,ioos:station:wmo:42043:1,2011-04-06T04:00:00Z,28.9818,-94.9186,2.0,257.1566228,24.923515,-99999.0,'11111222,11111222,99999999' 
TABS,ioos:station:wmo:42043:1,2011-04-06T04:30:00Z,28.9818,-94.9186,2.0,266.792289,21.9844354,-99999.0,'11111222,11111222,99999999' 
TABS,ioos:station:wmo:42043:1,2011-04-06T05:00:00Z,28.9818,-94.9186,2.0,270.6974139,20.55152063,-99999.0,'11111222,11111222,99999999' 
TABS,ioos:station:wmo:42043:1,2011-04-06T05:30:00Z,28.9818,-94.9186,2.0,277.3118569,17.91567191,-99999.0,'11111222,11111222,99999999' 